Weather Roundup
Issued by NWS Springfield, MO

Home | Current Version | Previous Version | Text Only | Print | Product List | Glossary On
Versions: 1 2 3 4 5 6 7 8 9 10 11 12 13 14 15 16 17 18 19 20 21 22 23 24 25 26 27 28 29 30 31 32 33 34 35 36 37 38 39 40 41 42 43 44 45 46 47 48 49 50
488
NZUS99 KSGF 312057
HRRSGF

HOURLY WEATHER
NATIONAL WEATHER SERVICE SPRINGFIELD MO
400 PM CDT TUE MAY 31 2016

......SGF CWA......

CITY           SKY/WX    TMP DP  RH WIND       PRES   REMARKS
SPRINGFIELD    PTSUNNY   81  62  52 S12       29.89F
JOPLIN         PTSUNNY   80  66  62 CALM      29.89F
WEST PLAINS    MOSUNNY   79  63  57 E6        29.92F
ROLLA          MOSUNNY   78  65  63 S8        29.90F

......SURROUNDING SGF CWA......

CITY           SKY/WX    TMP DP  RH WIND       PRES   REMARKS
CHANUTE        CLOUDY    79  65  62 SW5       29.90F
PARSONS        LGT RAIN  75  68  78 CALM      29.91F
COFFEYVILLE    PTSUNNY   79  68  69 CALM      29.89F
EMPORIA        MOSUNNY   78  59  51 NW3       29.91F
HARRISON AR    CLOUDY    77  66  68 SE10G20   29.90F

......KANSAS AND MISSOURI......

CITY           SKY/WX    TMP DP  RH WIND       PRES   REMARKS
KANSAS CTY INT CLOUDY    76  63  64 CALM      29.90F
SEDALIA        MOSUNNY   81  67  62 VRB6      29.91S
ST JOSEPH      CLOUDY    77  62  59 SW7       29.90S
ST LOUIS       PTSUNNY   83  61  47 S10       29.92F
WICHITA        PTSUNNY   81  60  48 NE6       29.92S
TOPEKA           N/A     80  61  52 VRB5      29.90S
OLATHE         CLOUDY    74  61  63 CALM      29.90F

......TENNESSEE......

CITY           SKY/WX    TMP DP  RH WIND       PRES   REMARKS
MEMPHIS        NOT AVBL
NASHVILLE      PTSUNNY   89  58  34 NE8       29.91F

......ARKANSAS.......

CITY           SKY/WX    TMP DP  RH WIND       PRES   REMARKS
FAYETTEVILLE   CLOUDY    75  69  81 SW5       29.90F
FT SMITH       LGT RAIN  76  69  79 S6        29.88F
LITTLE ROCK    PTSUNNY   85  69  58 E8        29.86F

......OKLAHOMA.......

CITY           SKY/WX    TMP DP  RH WIND       PRES   REMARKS
TULSA          CLOUDY    81  68  64 SE8       29.85F
PONCA CITY     PTSUNNY   79  64  60 SW3       29.88F
MCALESTER      CLOUDY    68  64  87 CALM      29.86S
OKLAHOMA CITY  CLOUDY    80  68  66 VRB6      29.86F

......IOWA............

CITY           SKY/WX    TMP DP  RH WIND       PRES   REMARKS
DES MOINES     CLOUDY    70  64  83 NW20      29.88R HAZE
QUAD CITIES    LGT RAIN  76  63  64 SE12      29.91F

......ILLINOIS........

CITY           SKY/WX    TMP DP  RH WIND       PRES   REMARKS
QUINCY         NOT AVBL
CHICAGO        TSTM      66  63  90 NW16G24   30.02R FOG




USA.gov is the U.S. government's official web portal to all federal, state and local government web resources and services.